FW6002 Weather Reports


time (UTC)temp
C
wind
direction
speed
KPH
gust
KPH
rain 1hr
cm
rain 24hr
cm
rain mn
cm
humidity
%
barometer
mb
20260902003112 33 103 0.0 3.2 0.00 0.00 0.00 48 1012.7
20260902002557 33 88 0.0 3.2 0.00 0.00 0.00 47 1012.7
20260902002055 34 0 0.0 4.8 0.00 0.00 0.00 46 1012.7
20260902001605 34 175 0.0 4.8 0.00 0.00 0.00 46 1012.8
20260902001055 34 19 0.0 3.2 0.00 0.00 0.00 46 1012.8
20260902000555 34 0 0.0 4.8 0.00 0.00 0.00 45 1012.7
20260902000105 34 63 0.0 4.8 0.00 0.00 0.00 45 1012.7
20260901235556 34 290 1.6 4.8 0.00 0.00 0.00 45 1012.8
20260901235055 34 117 0.0 4.8 0.00 0.00 0.00 45 1012.9
20260901234610 34 161 1.6 4.8 0.00 0.00 0.00 46 1012.9
20260901234055 34 193 0.0 4.8 0.00 0.00 0.00 46 1012.9
20260901233555 34 67 1.6 6.4 0.00 0.00 0.00 46 1012.8
20260901233108 34 65 1.6 6.4 0.00 0.00 0.00 46 1012.9
20260901232555 34 75 1.6 6.4 0.00 0.00 0.00 47 1012.9
20260901232056 35 13 1.6 6.4 0.00 0.00 0.00 47 1012.8
20260901231615 35 134 1.6 6.4 0.00 0.00 0.00 45 1012.8
20260901231056 35 74 1.6 4.8 0.00 0.00 0.00 45 1012.9
20260901230557 35 198 0.0 8.0 0.00 0.00 0.00 44 1012.9
20260901230111 35 170 1.6 9.7 0.00 0.00 0.00 44 1012.8
20260901225555 35 101 1.6 9.7 0.00 0.00 0.00 43 1012.9
20260901225056 36 48 3.2 9.7 0.00 0.00 0.00 43 1012.8
20260901224605 36 126 3.2 8.0 0.00 0.00 0.00 42 1012.6
20260901224056 36 165 3.2 8.0 0.00 0.00 0.00 41 1012.7
20260901223558 36 192 1.6 8.0 0.00 0.00 0.00 41 1012.6
20260901223103 36 0 0.0 4.8 0.00 0.00 0.00 42 1012.7
20260901222554 35 0 0.0 0.0 0.00 0.00 0.00 44 1012.9
20260901222055 35 0 0.0 1.6 0.00 0.00 0.00 44 1012.9
20260901221625 35 0 0.0 4.8 0.00 0.00 0.00 44 1012.8
20260901221055 35 0 0.0 6.4 0.00 0.00 0.00 42 1012.8
20260901220556 36 0 0.0 6.4 0.00 0.00 0.00 42 1013.0
20260901220121 36 203 0.0 4.8 0.00 0.00 0.00 42 1013.1
20260901215556 36 0 1.6 4.8 0.00 0.00 0.00 42 1013.1
20260901215057 36 147 1.6 4.8 0.00 0.00 0.00 41 1013.1
20260901214604 36 74 0.0 6.4 0.00 0.00 0.00 42 1013.0
20260901214055 36 0 1.6 8.0 0.00 0.00 0.00 42 1013.0
20260901213555 36 82 1.6 9.7 0.00 0.00 0.00 41 1013.0
20260901213110 36 198 1.6 9.7 0.00 0.00 0.00 41 1013.0
20260901212555 36 119 1.6 8.0 0.00 0.00 0.00 41 1013.1
20260901212056 36 144 1.6 6.4 0.00 0.00 0.00 42 1013.0
20260901211559 36 43 1.6 6.4 0.00 0.00 0.00 41 1013.3
20260901211055 36 40 1.6 4.8 0.00 0.00 0.00 41 1013.2
20260901210556 36 208 1.6 6.4 0.00 0.00 0.00 41 1013.2
20260901210124 36 163 1.6 6.4 0.00 0.00 0.00 39 1013.3
20260901205559 37 36 1.6 6.4 0.00 0.00 0.00 39 1013.5
20260901205056 36 0 1.6 6.4 0.00 0.00 0.00 42 1013.4
20260901204624 35 95 0.0 8.0 0.00 0.00 0.00 42 1013.6
20260901204055 36 89 3.2 8.0 0.00 0.00 0.00 42 1013.8
20260901203558 36 184 1.6 6.4 0.00 0.00 0.00 42 1013.7
20260901203104 36 124 0.0 4.8 0.00 0.00 0.00 41 1013.7
20260901202556 37 53 1.6 6.4 0.00 0.00 0.00 39 1013.6
20260901202058 37 148 0.0 8.0 0.00 0.00 0.00 40 1013.6
20260901201603 36 0 0.0 11.3 0.00 0.00 0.00 41 1013.6
20260901201056 37 251 1.6 11.3 0.00 0.00 0.00 39 1013.9
20260901200555 36 167 1.6 11.3 0.00 0.00 0.00 43 1013.9
20260901200123 36 127 3.2 11.3 0.00 0.00 0.00 42 1014.0
20260901195556 37 201 3.2 11.3 0.00 0.00 0.00 40 1014.0
20260901195057 37 0 1.6 11.3 0.00 0.00 0.00 42 1014.1
20260901194612 36 53 1.6 8.0 0.00 0.00 0.00 42 1014.3
20260901194059 37 208 1.6 9.7 0.00 0.00 0.00 41 1014.2
20260901193556 38 66 1.6 9.7 0.00 0.00 0.00 39 1014.3
20260901193103 38 173 1.6 6.4 0.00 0.00 0.00 40 1014.3
20260901192559 37 0 1.6 6.4 0.00 0.00 0.00 39 1014.2
20260901192055 37 157 1.6 11.3 0.00 0.00 0.00 41 1014.4
20260901191638 37 205 1.6 11.3 0.00 0.00 0.00 41 1014.5
20260901191059 37 153 1.6 11.3 0.00 0.00 0.00 41 1014.6
20260901190555 37 196 3.2 9.7 0.00 0.00 0.00 40 1014.9
20260901190109 38 147 1.6 6.4 0.00 0.00 0.00 37 1014.8
20260901185559 37 317 1.6 11.3 0.00 0.00 0.00 42 1014.8
20260901185055 37 195 1.6 11.3 0.00 0.00 0.00 40 1015.0
20260901184605 37 173 1.6 9.7 0.00 0.00 0.00 40 1015.0
20260901184055 37 229 1.6 9.7 0.00 0.00 0.00 40 1014.9
20260901183557 37 0 0.0 6.4 0.00 0.00 0.00 41 1015.2
20260901183102 37 54 1.6 6.4 0.00 0.00 0.00 39 1015.4
20260901182558 37 0 1.6 8.0 0.00 0.00 0.00 41 1015.4
20260901182056 37 72 3.2 8.0 0.00 0.00 0.00 42 1015.5
20260901181619 37 200 1.6 8.0 0.00 0.00 0.00 41 1015.6
20260901181055 36 191 1.6 6.4 0.00 0.00 0.00 44 1015.7
20260901180555 35 197 1.6 9.7 0.00 0.00 0.00 42 1015.7
20260901180105 36 83 3.2 9.7 0.00 0.00 0.00 43 1015.8
20260901175557 36 154 3.2 8.0 0.00 0.00 0.00 42 1015.9
20260901175055 36 224 1.6 8.0 0.00 0.00 0.00 44 1015.9
20260901174601 37 49 1.6 6.4 0.00 0.00 0.00 43 1016.0
20260901174056 37 33 0.0 9.7 0.00 0.00 0.00 42 1016.0
20260901173555 36 132 0.0 9.7 0.00 0.00 0.00 47 1016.2
20260901173118 37 64 0.0 9.7 0.00 0.00 0.00 43 1016.3
20260901172556 36 167 1.6 9.7 0.00 0.00 0.00 44 1016.5
20260901172054 36 0 1.6 6.4 0.00 0.00 0.00 45 1016.4
20260901171606 36 221 1.6 6.4 0.00 0.00 0.00 45 1016.4
20260901171055 36 0 1.6 6.4 0.00 0.00 0.00 44 1016.5
20260901170556 36 0 1.6 6.4 0.00 0.00 0.00 45 1016.6
20260901170104 35 58 0.0 8.0 0.00 0.00 0.00 45 1016.6
20260901165556 36 92 3.2 8.0 0.00 0.00 0.00 46 1016.7
20260901165056 36 171 1.6 9.7 0.00 0.00 0.00 48 1016.8
20260901164618 35 40 1.6 9.7 0.00 0.00 0.00 46 1016.8
20260901164055 35 135 3.2 9.7 0.00 0.00 0.00 47 1016.8
20260901163555 36 0 0.0 8.0 0.00 0.00 0.00 48 1016.9
20260901163102 35 138 3.2 8.0 0.00 0.00 0.00 47 1016.8
20260901162555 35 174 1.6 6.4 0.00 0.00 0.00 48 1017.0
20260901162055 35 0 1.6 6.4 0.00 0.00 0.00 48 1017.0
20260901161602 34 0 1.6 6.4 0.00 0.00 0.00 50 1017.0
20260901161056 35 65 0.0 4.8 0.00 0.00 0.00 49 1017.1
20260901160555 35 149 0.0 4.8 0.00 0.00 0.00 50 1017.1
20260901160117 35 30 0.0 6.4 0.00 0.00 0.00 50 1016.9
20260901155556 35 5 0.0 6.4 0.00 0.00 0.00 51 1017.0
20260901155056 35 85 0.0 4.8 0.00 0.00 0.00 51 1017.0
20260901154600 33 0 1.6 4.8 0.00 0.00 0.00 52 1017.0
20260901154055 33 65 1.6 4.8 0.00 0.00 0.00 51 1016.9
20260901153556 33 32 0.0 6.4 0.00 0.00 0.00 53 1017.1
20260901153132 33 53 1.6 6.4 0.00 0.00 0.00 54 1017.1
20260901152556 33 81 1.6 6.4 0.00 0.00 0.00 55 1017.0
20260901152058 32 0 3.2 8.0 0.00 0.00 0.00 56 1017.1
20260901151608 32 62 1.6 8.0 0.00 0.00 0.00 57 1017.0
20260901151057 32 60 1.6 8.0 0.00 0.00 0.00 56 1017.0
20260901150555 32 63 1.6 4.8 0.00 0.00 0.00 57 1017.1
20260901150115 32 119 1.6 4.8 0.00 0.00 0.00 58 1017.2
20260901145557 31 0 0.0 4.8 0.00 0.00 0.00 61 1017.1
20260901145056 31 0 1.6 4.8 0.00 0.00 0.00 60 1017.1
20260901144608 31 0 0.0 4.8 0.00 0.00 0.00 62 1017.1
20260901144055 30 189 1.6 4.8 0.00 0.00 0.00 63 1017.2
20260901143555 30 169 0.0 4.8 0.00 0.00 0.00 62 1017.2
20260901143122 30 212 1.6 4.8 0.00 0.00 0.00 64 1017.3
20260901142555 29 187 0.0 3.2 0.00 0.00 0.00 66 1017.2
20260901142057 29 0 0.0 4.8 0.00 0.00 0.00 68 1017.3
20260901141623 28 0 0.0 4.8 0.00 0.00 0.00 68 1017.4
20260901141056 28 202 0.0 4.8 0.00 0.00 0.00 69 1017.3
20260901140555 28 82 1.6 4.8 0.00 0.00 0.00 69 1017.2
20260901140135 27 70 1.6 4.8 0.00 0.00 0.00 70 1017.1
20260901135600 27 49 1.6 4.8 0.00 0.00 0.00 72 1017.1
20260901135056 26 115 1.6 4.8 0.00 0.00 0.00 72 1017.2
20260901134604 26 0 0.0 3.2 0.00 0.00 0.00 73 1017.1
20260901134055 26 0 0.0 3.2 0.00 0.00 0.00 73 1017.2
20260901133557 26 0 0.0 3.2 0.00 0.00 0.00 73 1017.2
20260901133102 26 0 0.0 3.2 0.00 0.00 0.00 74 1017.1
20260901132557 26 63 0.0 3.2 0.00 0.00 0.00 75 1017.2
20260901132056 25 0 0.0 1.6 0.00 0.00 0.00 77 1017.1
20260901131612 25 0 0.0 1.6 0.00 0.00 0.00 78 1017.1
20260901131056 24 0 0.0 0.0 0.00 0.00 0.00 78 1017.1
20260901130556 23 0 0.0 0.0 0.00 0.00 0.00 79 1017.1
20260901130105 23 0 0.0 0.0 0.00 0.00 0.00 79 1017.1
20260901125555 23 0 0.0 0.0 0.00 0.00 0.00 80 1017.0
20260901125055 22 0 0.0 0.0 0.00 0.00 0.00 80 1016.8
20260901124601 22 0 0.0 0.0 0.00 0.00 0.00 80 1016.6
20260901124055 22 0 0.0 0.0 0.00 0.00 0.00 80 1016.7
20260901123558 22 0 0.0 0.0 0.00 0.00 0.00 79 1016.6
20260901123105 22 0 0.0 0.0 0.00 0.00 0.00 79 1016.6
20260901122555 22 0 0.0 0.0 0.00 0.00 0.00 79 1016.6
20260901122056 22 0 0.0 0.0 0.00 0.00 0.00 79 1016.4
20260901121607 22 0 0.0 0.0 0.00 0.00 0.00 79 1016.3
20260901121057 22 0 0.0 0.0 0.00 0.00 0.00 79 1016.3
20260901120555 22 0 0.0 0.0 0.00 0.00 0.00 79 1016.2
20260901120106 22 0 0.0 0.0 0.00 0.00 0.00 79 1016.3
20260901115556 22 0 0.0 0.0 0.00 0.00 0.00 79 1016.1
20260901115059 22 0 0.0 0.0 0.00 0.00 0.00 79 1016.2
20260901114601 22 0 0.0 0.0 0.00 0.00 0.00 78 1016.1
20260901114055 22 0 0.0 0.0 0.00 0.00 0.00 78 1016.3
20260901113555 23 0 0.0 0.0 0.00 0.00 0.00 77 1016.4
20260901113104 23 0 0.0 0.0 0.00 0.00 0.00 77 1016.3
20260901112556 23 0 0.0 0.0 0.00 0.00 0.00 77 1016.2
20260901112055 23 0 0.0 0.0 0.00 0.00 0.00 77 1016.3
20260901111602 23 0 0.0 0.0 0.00 0.00 0.00 77 1016.1
20260901111056 23 0 0.0 0.0 0.00 0.00 0.00 76 1016.2
20260901110555 23 0 0.0 0.0 0.00 0.00 0.00 76 1016.0
20260901105600 23 0 0.0 0.0 0.00 0.00 0.00 75 1016.0
20260901105058 23 0 0.0 0.0 0.00 0.00 0.00 74 1015.9
20260901104605 23 0 0.0 0.0 0.00 0.00 0.00 74 1016.0
20260901104055 23 0 0.0 0.0 0.00 0.00 0.00 75 1015.8
20260901103555 23 0 0.0 0.0 0.00 0.00 0.00 75 1015.9
20260901103108 23 0 0.0 0.0 0.00 0.00 0.00 75 1015.9
20260901102555 23 0 0.0 0.0 0.00 0.00 0.00 75 1016.0
20260901102055 23 0 0.0 0.0 0.00 0.00 0.00 75 1015.8
20260901101610 23 0 0.0 0.0 0.00 0.00 0.00 74 1015.9
20260901101055 23 0 0.0 0.0 0.00 0.00 0.00 74 1016.1
20260901100555 23 0 0.0 0.0 0.00 0.00 0.00 74 1016.0
20260901100101 23 0 0.0 0.0 0.00 0.00 0.00 73 1016.0
20260901095555 23 0 0.0 0.0 0.00 0.00 0.00 73 1016.0
20260901095055 24 0 0.0 0.0 0.00 0.00 0.00 72 1015.9
20260901094605 24 0 0.0 0.0 0.00 0.00 0.00 71 1015.9
20260901094058 24 0 0.0 0.0 0.00 0.00 0.00 70 1016.0
20260901093555 24 0 0.0 0.0 0.00 0.00 0.00 70 1016.0
20260901093110 25 0 0.0 0.0 0.00 0.00 0.00 70 1016.1
20260901092555 25 0 0.0 1.6 0.00 0.00 0.00 70 1016.0
20260901092055 25 0 0.0 1.6 0.00 0.00 0.00 69 1016.1
20260901091601 25 0 0.0 0.0 0.00 0.00 0.00 69 1016.0
20260901091055 25 0 0.0 0.0 0.00 0.00 0.00 69 1016.1
20260901090555 25 0 0.0 0.0 0.00 0.00 0.00 69 1016.1
20260901090059 25 0 0.0 1.6 0.00 0.00 0.00 69 1016.1
20260901085555 25 0 0.0 1.6 0.00 0.00 0.00 69 1015.9
20260901085054 24 0 0.0 0.0 0.00 0.00 0.00 69 1016.2
20260901084608 24 0 0.0 0.0 0.00 0.00 0.00 70 1015.9
20260901084055 24 0 0.0 0.0 0.00 0.00 0.00 70 1016.0
20260901083555 24 0 0.0 0.0 0.00 0.00 0.00 70 1015.9
20260901083108 24 0 0.0 0.0 0.00 0.00 0.00 70 1015.9
20260901082555 24 0 0.0 0.0 0.00 0.00 0.00 70 1016.0
20260901082055 24 0 0.0 0.0 0.00 0.00 0.00 70 1015.9
20260901081603 23 0 0.0 0.0 0.00 0.00 0.00 71 1015.9
20260901081054 24 0 0.0 0.0 0.00 0.00 0.00 70 1015.9
20260901080555 24 0 0.0 0.0 0.00 0.00 0.00 70 1015.6
20260901080207 24 0 0.0 0.0 0.00 0.00 0.00 71 1015.7
20260901075557 24 0 0.0 0.0 0.00 0.00 0.00 71 1015.8
20260901075055 23 0 0.0 0.0 0.00 0.00 0.00 71 1015.8
20260901074608 23 0 0.0 0.0 0.00 0.00 0.00 71 1015.5
20260901074055 23 0 0.0 0.0 0.00 0.00 0.00 70 1015.6
20260901073556 23 0 0.0 0.0 0.00 0.00 0.00 70 1015.6
20260901073105 23 0 0.0 0.0 0.00 0.00 0.00 69 1015.7
20260901072555 23 0 0.0 0.0 0.00 0.00 0.00 70 1015.6
20260901072058 23 0 0.0 0.0 0.00 0.00 0.00 71 1015.6
20260901071609 23 0 0.0 0.0 0.00 0.00 0.00 71 1015.6
20260901071055 23 0 0.0 0.0 0.00 0.00 0.00 71 1015.6
20260901070555 23 0 0.0 0.0 0.00 0.00 0.00 70 1015.4
20260901070132 23 0 0.0 0.0 0.00 0.00 0.00 70 1015.5
20260901065555 23 0 0.0 0.0 0.00 0.00 0.00 70 1015.5
20260901065055 23 0 0.0 0.0 0.00 0.00 0.00 68 1015.4
20260901064611 24 0 0.0 0.0 0.00 0.00 0.00 69 1015.3
20260901064055 24 0 0.0 0.0 0.00 0.00 0.00 69 1015.2
20260901063555 24 0 0.0 0.0 0.00 0.00 0.00 69 1015.3
20260901063105 24 0 0.0 0.0 0.00 0.00 0.00 69 1015.4
20260901062556 24 0 0.0 0.0 0.00 0.00 0.00 68 1015.4
20260901062056 24 0 0.0 0.0 0.00 0.00 0.00 67 1015.3
20260901061610 25 0 0.0 0.0 0.00 0.00 0.00 67 1015.2
20260901061057 25 0 0.0 0.0 0.00 0.00 0.00 66 1015.2
20260901060556 25 0 0.0 0.0 0.00 0.00 0.00 66 1015.1
20260901060101 25 0 0.0 0.0 0.00 0.00 0.00 65 1015.0
20260901055556 25 0 0.0 0.0 0.00 0.00 0.00 63 1014.8
20260901055055 25 0 0.0 0.0 0.00 0.00 0.00 63 1014.7
20260901054608 25 0 0.0 0.0 0.00 0.00 0.00 63 1014.8
20260901054056 25 0 0.0 0.0 0.00 0.00 0.00 63 1014.7
20260901053556 25 0 0.0 0.0 0.00 0.00 0.00 63 1014.7
20260901053110 25 0 0.0 0.0 0.00 0.00 0.00 63 1014.7
20260901052557 26 0 0.0 0.0 0.00 0.00 0.00 63 1014.6
20260901052058 26 0 0.0 0.0 0.00 0.00 0.00 62 1014.6
20260901051601 26 0 0.0 0.0 0.00 0.00 0.00 62 1014.7
20260901051055 26 0 0.0 0.0 0.00 0.00 0.00 62 1014.6
20260901050557 26 0 0.0 0.0 0.00 0.00 0.00 61 1014.5
20260901050107 26 0 0.0 0.0 0.00 0.00 0.00 61 1014.3
20260901045555 26 0 0.0 0.0 0.00 0.00 0.00 61 1014.4
20260901045055 26 0 0.0 0.0 0.00 0.00 0.00 61 1014.3
20260901044623 26 0 0.0 0.0 0.00 0.00 0.00 61 1014.4
20260901044055 26 0 0.0 0.0 0.00 0.00 0.00 61 1014.4
20260901043557 27 0 0.0 0.0 0.00 0.00 0.00 60 1014.4
20260901043102 27 0 0.0 0.0 0.00 0.00 0.00 59 1014.5
20260901042557 27 0 0.0 0.0 0.00 0.00 0.00 58 1014.5
20260901042055 27 0 0.0 0.0 0.00 0.00 0.00 58 1014.6
20260901041601 27 0 0.0 0.0 0.00 0.00 0.00 59 1014.5
20260901041056 27 0 0.0 0.0 0.00 0.00 0.00 60 1014.5
20260901040555 27 0 0.0 0.0 0.00 0.00 0.00 60 1014.4
20260901040108 27 0 0.0 0.0 0.00 0.00 0.00 60 1014.5
20260901035555 27 0 0.0 0.0 0.00 0.00 0.00 61 1014.4
20260901035054 27 0 0.0 0.0 0.00 0.00 0.00 60 1014.6
20260901034559 27 0 0.0 0.0 0.00 0.00 0.00 61 1014.6
20260901034054 27 0 0.0 0.0 0.00 0.00 0.00 61 1014.3
20260901033554 27 0 0.0 0.0 0.00 0.00 0.00 60 1014.3
20260901033103 27 0 0.0 0.0 0.00 0.00 0.00 60 1014.2
20260901032558 27 0 0.0 0.0 0.00 0.00 0.00 60 1014.2
20260901032054 27 0 0.0 0.0 0.00 0.00 0.00 60 1014.4
20260901031605 27 0 0.0 0.0 0.00 0.00 0.00 59 1014.3
20260901031054 28 0 0.0 0.0 0.00 0.00 0.00 58 1014.3
20260901030557 28 0 0.0 0.0 0.00 0.00 0.00 57 1014.3
20260901030059 28 0 0.0 0.0 0.00 0.00 0.00 56 1014.3
20260901025554 28 0 0.0 0.0 0.00 0.00 0.00 56 1014.2
20260901025055 29 0 0.0 0.0 0.00 0.00 0.00 55 1014.0
20260901024604 29 0 0.0 0.0 0.00 0.00 0.00 54 1014.1
20260901024053 29 0 0.0 0.0 0.00 0.00 0.00 54 1013.9
20260901023551 29 0 0.0 0.0 0.00 0.00 0.00 55 1013.9
20260901023102 29 0 0.0 0.0 0.00 0.00 0.00 54 1013.8
20260901022554 30 0 0.0 0.0 0.00 0.00 0.00 54 1013.9
20260901022054 30 0 0.0 0.0 0.00 0.00 0.00 53 1013.8
20260901021611 30 0 0.0 1.6 0.00 0.00 0.00 52 1013.8
20260901021057 30 0 0.0 1.6 0.00 0.00 0.00 51 1013.8
20260901020555 30 0 0.0 0.0 0.00 0.00 0.00 50 1013.6
20260901020105 30 0 0.0 0.0 0.00 0.00 0.00 50 1013.6
20260901015554 31 0 0.0 0.0 0.00 0.00 0.00 49 1013.5
20260901015054 31 0 0.0 0.0 0.00 0.00 0.00 48 1013.5
20260901014604 31 0 0.0 0.0 0.00 0.00 0.00 47 1013.2
20260901014054 31 0 0.0 1.6 0.00 0.00 0.00 46 1013.3
20260901013554 32 0 0.0 1.6 0.00 0.00 0.00 45 1013.3
20260901013119 32 0 0.0 1.6 0.00 0.00 0.00 45 1013.3
20260901012555 32 0 0.0 3.2 0.00 0.00 0.00 44 1013.3
20260901012054 33 0 0.0 4.8 0.00 0.00 0.00 43 1013.2
20260901011559 33 0 0.0 4.8 0.00 0.00 0.00 42 1013.1
20260901011054 33 0 0.0 4.8 0.00 0.00 0.00 42 1013.0
20260901010555 33 0 0.0 4.8 0.00 0.00 0.00 41 1013.0
20260901010059 33 59 1.6 4.8 0.00 0.00 0.00 41 1013.1
20260901005554 33 96 0.0 3.2 0.00 0.00 0.00 41 1013.0
20260901005053 33 0 0.0 6.4 0.00 0.00 0.00 40 1013.0
20260901004605 34 0 0.0 6.4 0.00 0.00 0.00 40 1013.0
20260901004053 34 0 0.0 4.8 0.00 0.00 0.00 39 1012.9
20260901003553 34 0 0.0 4.8 0.00 0.00 0.00 39 1013.0